K9JM Weather Reports


Display with metric or nautical units.
time (UTC)temp
F
wind
direction
speed
MPH
gust
MPH
rain 1hr
in
rain 24hr
in
rain mn
in
humidity
%
barometer
mb
20260504044515 54 0.0 0.0 0.00 0.00 0.00 84 1012.8
20260504043016 54 0.0 0.0 0.00 0.00 0.00 84 1012.8
20260504041515 54 0.0 0.0 0.00 0.00 0.00 84 1012.6
20260504040116 54 0.0 0.0 0.00 0.00 0.00 84 1012.5
20260504034515 54 0.0 0.0 0.00 0.00 0.00 84 1012.1
20260504033015 54 0.0 0.0 0.00 0.00 0.00 84 1011.9
20260504031556 54 0.0 0.0 0.00 0.00 0.00 84 1011.6
20260504030015 55 0.0 0.0 0.00 0.00 0.00 84 1011.3
20260504024515 55 0.0 0.0 0.00 0.00 0.00 82 1011.1
20260504023016 55 0.0 0.0 0.00 0.00 0.00 82 1011.1
20260504021515 55 0.0 0.0 0.00 0.00 0.00 82 1011.1
20260504020015 55 0.0 0.0 0.00 0.00 0.00 82 1011.0
20260504014515 55 0.0 0.0 0.00 0.00 0.00 82 1010.9
20260504013015 55 0.0 0.0 0.00 0.00 0.00 82 1010.9
20260504011515 55 0.0 0.0 0.00 0.00 0.00 82 1010.9
20260504010015 55 0.0 0.0 0.00 0.00 0.00 83 1010.9
20260504004515 55 0.0 0.0 0.00 0.00 0.00 83 1011.0
20260504003015 55 0.0 0.0 0.00 0.00 0.00 83 1010.9
20260504001515 55 0.0 0.0 0.00 0.00 0.00 84 1010.5
20260504000015 55 0.0 0.0 0.00 0.00 0.00 84 1010.6
20260503234515 55 0.0 0.0 0.00 0.00 0.00 83 1010.8
20260503233017 55 0.0 0.0 0.00 0.00 0.00 83 1011.6
20260503231517 54 0.0 0.0 0.00 0.00 0.00 83 1011.3
20260503230017 54 0.0 0.0 0.00 0.00 0.00 83 1011.1
20260503224517 54 0.0 0.0 0.00 0.00 0.00 83 1011.7
20260503223036 54 0.0 0.0 0.00 0.00 0.00 83 1011.8
20260503221517 55 0.0 0.0 0.00 0.00 0.00 82 1011.6
20260503220018 55 0.0 0.0 0.00 0.00 0.00 83 1011.5
20260503214517 55 0.0 0.0 0.00 0.00 0.00 84 1011.6
20260503213017 55 0.0 0.0 0.00 0.00 0.00 84 1011.6
20260503211517 54 0.0 0.0 0.00 0.00 0.00 83 1011.2
20260503210017 54 0.0 0.0 0.00 0.00 0.00 83 1011.3
20260503204537 54 0.0 0.0 0.00 0.00 0.00 82 1011.2
20260503203017 55 0.0 0.0 0.00 0.00 0.00 81 1011.4
20260503201517 56 0.0 0.0 0.00 0.00 0.00 79 1011.2
20260503200017 58 0.0 0.0 0.00 0.00 0.00 75 1011.3
20260503194517 60 0.0 0.0 0.00 0.00 0.00 74 1011.4
20260503193017 60 0.0 0.0 0.00 0.00 0.00 73 1011.4
20260503191517 61 0.0 0.0 0.00 0.00 0.00 72 1011.6
20260503190017 61 0.0 0.0 0.00 0.00 0.00 75 1011.7
20260503184517 60 0.0 0.0 0.00 0.00 0.00 74 1011.6
20260503183017 60 0.0 0.0 0.00 0.00 0.00 72 1011.5
20260503181517 60 0.0 0.0 0.00 0.00 0.00 75 1011.4
20260503180017 60 0.0 0.0 0.00 0.00 0.00 71 1011.3
20260503174517 58 0.0 0.0 0.00 0.00 0.00 79 1010.7
20260503173117 58 0.0 0.0 0.00 0.00 0.00 75 1011.2
20260503171517 58 0.0 0.0 0.00 0.00 0.00 79 1011.2
20260503081516 61 0.0 0.0 0.00 0.00 0.00 68 1010.3
20260503071516 61 0.0 0.0 0.00 0.00 0.00 76 1010.8
20260503054515 61 0.0 0.0 0.00 0.00 0.00 77 1011.5
20260503053016 61 0.0 0.0 0.00 0.00 0.00 77 1011.5
20260503051515 61 0.0 0.0 0.00 0.00 0.00 77 1011.8
20260503050035 61 0.0 0.0 0.00 0.00 0.00 77 1011.6